Location: Luxembourg
(49.6117°N, 6.1300°E)
Time: 18:10:11
(UTC+01:00)

X-37B - Pass Details

Date: 10 December 2021
Orbit: 334 x 337 km, 45.0° (Epoch: 11 January)

Event Time Altitude Azimuth Distance (km) Brightness Sun altitude
Rises 19:13:51 0° 252° (WSW) 2,102 5.6 -24.5°
Reaches altitude 10° 19:15:58 10° 241° (WSW) 1,266 4.1 -24.8°
Enters shadow 19:16:46 16° 232° (SW) 979 3.3 -25.0°
